This is the latest recevied weather packets stored in our database for station/object KC1HBM. If no packets are shown the sender has not sent any weather packets the latest 10 day(s).
| Time | Temp. | Humidity | Pressure | Rain* | Wind** | Luminosity | Snow |
|---|---|---|---|---|---|---|---|
| 1777550265 | 7.22° C | 99% | 1006.7 hPa | 0 mm | - | 38 W/m² | - |
| 1777549963 | 7.22° C | 99% | 1006.8 hPa | 0 mm | - | 32 W/m² | - |
| 1777549659 | 7.22° C | 99% | 1006.7 hPa | 0 mm | - | 29 W/m² | - |
| 1777549354 | 7.22° C | 99% | 1006.9 hPa | 0 mm | - | 27 W/m² | - |
| 1777549052 | 7.22° C | 99% | 1006.9 hPa | 0 mm | - | 23 W/m² | - |
| 1777548748 | 7.22° C | 99% | 1007.2 hPa | 0 mm | - | 19 W/m² | - |
| 1777548446 | 7.22° C | 99% | 1007.1 hPa | 0 mm | - | 14 W/m² | - |
| 1777548142 | 7.22° C | 99% | 1007.1 hPa | 0 mm | - | 11 W/m² | - |
| 1777547838 | 7.22° C | 99% | 1007.3 hPa | 0 mm | - | 11 W/m² | - |
| 1777547534 | 7.22° C | 99% | 1007 hPa | 0 mm | - | 13 W/m² | - |
| 1777547232 | 7.22° C | 99% | 1007 hPa | 0 mm | - | 16 W/m² | - |
| 1777546929 | 7.22° C | 99% | 1006.8 hPa | 0 mm | - | 17 W/m² | - |
| 1777546626 | 7.22° C | 99% | 1006.8 hPa | 0 mm | - | 12 W/m² | - |
| 1777546322 | 7.22° C | 99% | 1006.9 hPa | 0 mm | - | 9 W/m² | - |
| 1777546020 | 7.22° C | 99% | 1006.9 hPa | 0 mm | - | 9 W/m² | - |
| 1777545715 | 7.22° C | 99% | 1006.6 hPa | 0 mm | - | 9 W/m² | - |
| 1777545413 | 7.22° C | 99% | 1006.7 hPa | 1.27 mm | - | 7 W/m² | - |
| 1777545110 | 7.22° C | 99% | 1006.7 hPa | 1.27 mm | - | 8 W/m² | - |
| 1777544807 | 7.22° C | 99% | 1006.8 hPa | 0 mm | - | 8 W/m² | - |
| 1777544503 | 6.67° C | 99% | 1006.8 hPa | 0 mm | - | 9 W/m² | - |
| 1777544199 | 6.67° C | 99% | 1006.9 hPa | 0 mm | - | 7 W/m² | - |
| 1777543897 | 6.67° C | 99% | 1007 hPa | 0 mm | - | 3 W/m² | - |
| 1777543592 | 6.67° C | 99% | 1006.8 hPa | 1.78 mm | - | 2 W/m² | - |
| 1777543283 | 6.67° C | 99% | 1006.7 hPa | 1.78 mm | - | 0 W/m² | - |
| 1777542979 | 6.67° C | 99% | 1006.8 hPa | 0 mm | - | 0 W/m² | - |
* Rain latest hour (hover to see other rain measurements)
** Current wind speed in m/s (hover to see current wind gust speed)